Meteo Giornale » Osservazioni meteo Italia » Bergamo-Orio Al Serio

ore: 15:50 - Osservazioni Meteo Bergamo-Orio Al Serio
Lat. 45° 40' N Lon. 9° 42' E Alt. 238 metri s.l.m.

sereno Europe/Rome

28 °C

Sereno

Temp. 24 Ore

18 °C

28 °C

Ovest

7.4 Km/h

Dew point 15 °C

Umidità 45 %

Visibilità  10 Km

Il sole sorge alle ore 07:05

Il sole tramonta alle ore 19:22

Data e Ora Cielo e Fenomeni T °C DP °C Um. % Pres. hPa Vis. km Vento km/h
Oggi h: 15:50 sereno Sereno 28 15 45 1015 10 O 7.4
Oggi h: 15:20 sereno Sereno 28 17 51 1015 10 SO 11.1
Oggi h: 14:50 sereno Sereno 28 16 48 1015 10 SO 13
Oggi h: 14:20 poco_nuvoloso Poco Nuvoloso 27 17 54 1016 10 O/SO 9.3
Oggi h: 13:50 sereno Sereno 27 17 54 1016 8 S/SO 7.4
Oggi h: 13:20 sereno Sereno 27 18 57 1016 9 N 5.5
Oggi h: 12:50 sereno Sereno 27 17 54 1016 9 SO 9.3
Oggi h: 12:20 sereno Sereno 26 17 57 1017 10 SO 7.4
Oggi h: 11:50 sereno Sereno 25 18 65 1017 10 N 5.5
Oggi h: 11:20 sereno Sereno 25 17 61 1017 10 N 5.5
Oggi h: 10:50 sereno Sereno 24 17 64 1017 10 N 5.5
Oggi h: 10:20 sereno Sereno 23 16 64 1017 10 N 5.5
Oggi h: 09:50 sereno Sereno 22 17 73 1017 10 N 1.8
Oggi h: 09:20 sereno Sereno 21 16 73 1017 10 N 3.7
Oggi h: 08:50 sereno Sereno 20 16 77 1017 9 N 3.7
Oggi h: 08:20 sereno Sereno 19 16 82 1017 8 N 5.5
Oggi h: 07:50 sereno Sereno 18 15 82 1017 7 N 9.3
Oggi h: 07:20 sereno Sereno 18 15 82 1017 9 N 9.3
Oggi h: 06:50 sereno Sereno 19 15 77 1017 10 N 7.4
Oggi h: 06:20 sereno Sereno 18 16 88 1017 10 N 5.5
Oggi h: 05:50 sereno Sereno 18 16 88 1017 10 N/NE 7.4
Oggi h: 05:20 sereno Sereno 18 16 88 1017 10 N 7.4
Oggi h: 04:20 sereno Sereno 18 16 88 1017 10 N/NE 9.3
Oggi h: 03:50 sereno Sereno 19 16 82 1017 10 N 9.3
Oggi h: 03:20 sereno Sereno 19 16 82 1017 10 N 9.3
Oggi h: 02:50 sereno Sereno 19 16 82 1018 10 N/NE 7.4
Oggi h: 02:20 sereno Sereno 19 16 82 1018 10 N 7.4
Oggi h: 01:50 sereno Sereno 19 16 82 1018 10 N 9.3
Oggi h: 01:20 sereno Sereno 20 16 77 1018 10 N 9.3
Oggi h: 00:50 sereno Sereno 20 17 82 1018 10 N 7.4
Oggi h: 00:20 sereno Sereno 20 17 82 1018 10 N 9.3
Ieri h: 23:50 sereno Sereno 20 17 82 1018 10 N 9.3
Ieri h: 23:20 sereno Sereno 20 17 82 1018 10 N 7.4
Ieri h: 22:20 sereno Sereno 21 17 77 1018 10 N 9.3
Ieri h: 21:50 sereno Sereno 21 18 82 1018 10 N 11.1
Ieri h: 21:20 sereno Sereno 21 18 82 1018 10 N 9.3
Ieri h: 20:50 sereno Sereno 22 18 78 1018 8 N 9.3
Ieri h: 20:20 sereno Sereno 22 18 78 1018 8 N 9.3
Ieri h: 19:50 sereno Sereno 26 17 57 1018 7 N 5.5
Ieri h: 18:50 sereno Sereno 27 17 54 1018 8 S 9.3
Ieri h: 18:20 poco_nuvoloso Poco Nuvoloso 27 17 54 1018 10 S 9.3
Ieri h: 17:50 poco_nuvoloso Poco Nuvoloso 27 16 50 1018 10 S/SE 9.3
Ieri h: 17:20 poco_nuvoloso Poco Nuvoloso 27 17 54 1018 10 S 9.3
Ieri h: 16:50 poco_nuvoloso Poco Nuvoloso 28 16 48 1018 10 S 9.3